Back to catalog

STARONE D1

AliveCommunicationsGEO
NORAD 41904·PAYLOAD·🇧🇷 Brazil

Launched Dec 21, 2016 from Guiana Space Centre

Loading…

TLE

FreshSource: Space-Track

Epoch: Sep 14, 2026, 11:46 UTC

1 41904U 16082B   26257.49072645  .00000000  00000-0  00000-0 0  9994
2 41904   0.0274 125.4092 0002475  55.2375 265.5142  1.00268779 35666

Track STARONE D1 in real time with AllMySat

Download on the App Store